Location: Delettes
(50.6178°N, 2.2123°E)
Time: 15:37:36
(UTC+00:00)

STARLINK-1046 - Pass Details

Date: 27 February 2020
Orbit: 549 x 550 km, 53.0° (Epoch: 28 March)

Event Time Altitude Azimuth Distance (km) Brightness Sun altitude
Rises 18:28:39 0° 221° (SW) 2,706 7.8 -10.3°
Maximum altitude 18:34:48 38° 145° (SE) 841 4.3 -11.3°
Enters shadow 18:37:29 18° 85° (E) 1,404 5.0 -11.7°
